Regional Weather Roundup
Issued by NWS Cleveland, OH

Home | Current Version | Previous Version | Graphics & Text | Print | Product List | Glossary On
Versions: 1 2 3 4 5 6 7 8 9 10 11 12 13 14 15 16 17 18 19 20 21 22 23 24 25 26 27 28 29 30 31 32 33 34 35 36 37 38 39 40 41 42 43 44 45 46 47 48 49 50
000
ASUS41 KCLE 221310
RWRCLE
OHIO REGIONAL WEATHER ROUNDUP
NATIONAL WEATHER SERVICE CLEVELAND, OH
900 AM EDT SUN OCT 22 2017

NOTE: "FAIR" INDICATES FEW OR NO CLOUDS BELOW 12,000 FEET WITH NO
SIGNIFICANT WEATHER AND/OR OBSTRUCTIONS TO VISIBILITY.

OHZ001>008-015>018-024>027-034-035-043-044-221400-
   NORTHWEST OHIO

CITY           SKY/WX    TMP DP  RH WIND       PRES   REMARKS
DEFIANCE       SUNNY     57  47  69 S7        30.15R
FINDLAY        SUNNY     55  49  80 SE10      30.18R
TOLEDO EXPRESS SUNNY     56  51  84 S3        30.17R
TOLEDO EXEC    SUNNY     57  50  77 S10       30.18R
LIMA           CLOUDY    58  50  75 S9        30.19R
$$

OHZ009>014-019>023-028>033-038-089-221400-
   NORTHEAST OHIO

CITY           SKY/WX    TMP DP  RH WIND       PRES   REMARKS
CLE-HOPKINS    PTSUNNY   59  52  77 S10       30.25R
CLE-LAKEFRONT  MOSUNNY   58  49  72 S16       30.22R
CUY CO. ARPT   MOSUNNY   59  52  77 SE12      30.24S
LORAIN-ELYRIA  SUNNY     55  47  74 S7        30.23S
ASHTABULA      MOSUNNY   56  52  86 S7        30.27S
AKRON-CANTON   MOSUNNY   56  49  77 S6        30.26S
WOOSTER        SUNNY     52  50  93 SE3       30.27R
MANSFIELD      MOSUNNY   57  51  80 SE9       30.24R
YOUNGSTOWN     PTSUNNY   57  51  80 SE7       30.29R
$$

OHZ042-051>053-060>062-070>072-077>081-221400-
  SOUTHWEST OHIO

CITY           SKY/WX    TMP DP  RH WIND       PRES   REMARKS
CINC-COVINGTON PTSUNNY   57  50  77 S8        30.20R
CINC-LUNKEN    CLOUDY    51  50  96 CALM      30.22R
HAMILTON       MOSUNNY   56  51  84 E5        30.21R
DAYTON         CLOUDY    59  51  75 S9        30.21R
WRIGHT-PAT AFB PTSUNNY   58  51  77 S5        30.21R
DAYTON GENERAL MOSUNNY   59  48  67 S10       30.20R
WILMINGTON     CLOUDY    58  51  78 S8        30.22R
$$

OHZ036-037-039>041-045>050-054>059-063>069-073>076-082>088-221400-
  CENTRAL AND SOUTHEAST OHIO

CITY           SKY/WX    TMP DP  RH WIND       PRES   REMARKS
COLUMBUS       PTSUNNY   57  52  83 SE5       30.24R
OSU AIRPORT    SUNNY     57  52  83 SE7       30.23R
BOLTON FIELD   SUNNY     55  52  88 S7        30.24R
RICKENBACK AFB SUNNY     51  50  96 SE3       30.24R
NEWARK         MOSUNNY   50  48  93 CALM      30.25R FOG
MARION         CLOUDY    58  50  75 S10       30.22R
LANCASTER      SUNNY     55  51  86 SE9       30.26R
ZANESVILLE     SUNNY     54  50  86 CALM      30.28R
NEW PHILLY     NOT AVBL
$$




USA.gov is the U.S. government's official web portal to all federal, state and local government web resources and services.